Location: Unspecified
(43.4680°N, 87.1740°E)
Time: 20:50:26
(UTC+00:00)

CZ-2C R/B - Pass Details

Date: 17 April 2021
Orbit: 784 x 871 km, 98.2° (Epoch: 11 May)

Event Time Altitude Azimuth Distance (km) Brightness Sun altitude
Rises 14:02:34 0° 4° (N) 3,285 6.1 -11.9°
Reaches altitude 10° 14:05:03 10° 356° (N) 2,355 5.5 -12.3°
Maximum altitude 14:09:41 34° 293° (WNW) 1,279 4.4 -13.1°
Drops below altitude 10° 14:14:21 10° 229° (SW) 2,367 5.3 -13.8°
Sets 14:16:52 0° 220° (SW) 3,305 5.9 -14.2°
